Terminal Aerodrome Forecast
Issued by NWS Greer, SC

Home | Current Version | Previous Version | Text Only | Print | Product List | Glossary On
Versions: 1 2 3 4 5 6 7 8 9 10 11 12 13 14 15 16 17 18 19 20 21
529
FTUS42 KGSP 221120
TAFGSP
TAF
KGSP 221120Z 2212/2312 25004KT P6SM VCSH SCT020 OVC110
     FM221400 23003KT P6SM -RA BKN030
     FM221700 23003KT P6SM VCSH OVC040
     FM222100 VRB02KT P6SM -SHRA OVC035
      TEMPO 2221/2301 4SM -SHRA OVC025
     FM230100 12004KT P6SM -SHRA OVC020
     FM230400 21004KT P6SM VCSH OVC008=

USA.gov is the U.S. government's official web portal to all federal, state and local government web resources and services.